Miscellaneous Local Product
Issued by NWS Hastings, NE

Home | Current Version | Previous Version | Graphics & Text | Print | Product List | Glossary On
Versions: 1 2 3 4 5 6 7 8 9 10 11 12 13 14 15 16 17 18 19 20 21 22 23 24 25 26 27 28 29 30 31 32 33 34 35 36 37 38 39 40 41 42 43 44 45 46 47 48 49 50
000
AXUS43 KGID 181302
MISGRI

GID CWA HOURLY WEATHER ROUNDUP
NATIONAL WEATHER SERVICE HASTINGS NE
700 AM CST SUN FEB 18 2018

NOTE: "FAIR" INDICATES FEW OR NO CLOUDS BELOW 12,000 FEET WITH NO
SIGNIFICANT WEATHER AND/OR OBSTRUCTIONS TO VISIBILITY.

...SOUTH CENTRAL NEBRASKA...

CITY           SKY/WX    TMP DP  RH WIND       PRES   REMARKS
GRAND ISLAND   CLOUDY    41  23  48 S28G39    29.70F
KEARNEY        CLOUDY    39  24  55 S24       29.71S WCI  28
HASTINGS       CLOUDY    41  22  46 S17G30    29.72F
ORD            PTCLDY    39  22  50 S23G38    29.63F WCI  28
YORK           PTCLDY    37  23  56 S23G29    29.77F WCI  26
AURORA         CLOUDY    37  21  52 S21G28    29.73F WCI  27
LEXINGTON      PTCLDY    39  23  51 S22G29    29.63F WCI  29
HOLDREGE       CLOUDY    40  24  53 S23G32    29.69F WCI  30
HEBRON         CLOUDY    41  24  49 S14G22    29.83F

...NEBRASKA PANHANDLE...

CITY           SKY/WX    TMP DP  RH WIND       PRES   REMARKS
CHADRON        CLOUDY    40  26  57 SW6       29.43S
ALLIANCE       CLOUDY    33  21  61 SE9       29.50F WCI  25
SCOTTSBLUFF    CLOUDY    45  16  31 S9        29.50F
SIDNEY         PTCLDY    32  17  54 SW12      29.55F WCI  23

...WESTERN AND NORTH CENTRAL NEBRASKA...

CITY           SKY/WX    TMP DP  RH WIND       PRES   REMARKS
VALENTINE      CLOUDY    41  22  46 SW21G28   29.45F
AINSWORTH      CLOUDY    39  23  52 S20G30    29.49F WCI  29
ONEILL         PTCLDY    38  23  54 S21G29    29.56F WCI  28
BROKEN BOW     MOCLDY    38  23  55 S23       29.61F WCI  27
IMPERIAL       PTCLDY    29  21  72 S8        29.58F WCI  21
NORTH PLATTE   CLOUDY    37  22  54 S8G22     29.60F WCI  31
MCCOOK         CLOUDY    40  26  57 SW20      29.63F WCI  30

...EASTERN NEBRASKA...

CITY           SKY/WX    TMP DP  RH WIND       PRES   REMARKS
NORFOLK        CLEAR     36  22  56 S35G45    29.65F WCI  22
SO SIOUX CITY  CLEAR     33  23  66 S24G31    29.75F WCI  20
TEKAMAH        PTCLDY    33  24  69 S18       29.82F WCI  22
COLUMBUS       PTCLDY    36  23  59 S17       29.76F WCI  26
ALBION         CLEAR     35  24  63 S17       29.68F WCI  25
OMAHA EPPLEY   CLOUDY    34  23  64 S15       29.87F WCI  24
OFFUTT AFB     CLOUDY    31  23  72 SE6       29.88F WCI  25
MILLARD        CLOUDY    39  24  54 S14G21    29.87F WCI  31
LINCOLN        CLOUDY    39  22  50 S17       29.84F WCI  30
NEBRASKA CITY  CLOUDY    36  26  69 S13       29.92F WCI  27
BEATRICE       CLOUDY    40  24  54 S15       29.87F WCI  31
FALLS CITY     CLOUDY    39  28  64 S14G26    29.96F WCI  31

...NORTHERN KANSAS...

CITY           SKY/WX    TMP DP  RH WIND       PRES   REMARKS
GOODLAND       CLOUDY    37  25  61 S13       29.62F WCI  29
HILL CITY      CLOUDY    45  24  43 S18G35    29.73F
NORTON         SUNNY     39  18  41 S18G26    29.68F WCI  30
PHILLIPSBURG   CLEAR     45  23  42 S15       29.75F
SMITH CENTER   CLEAR     41  21  45 S17G23    29.79F
BELOIT         CLEAR     43  21  42 S13G24    29.85F
HAYS           CLOUDY    43  20  39 S16G23    29.83F
RUSSELL        CLOUDY    45  21  38 S23G32    29.81F
CONCORDIA      CLOUDY    41  24  51 S29G39    29.84F
SALINA         CLOUDY    40  25  55 S16       29.92F WCI  31
TOPEKA         CLOUDY    41  34  76 S12       30.01F



USA.gov is the U.S. government's official web portal to all federal, state and local government web resources and services.